Time,TemperatureF,DewpointF,PressureIn,WindDirection,WindDirectionDegrees,WindSpeedMPH,WindSpeedGustMPH,Humidity,HourlyPrecipIn,Conditions,Clouds,dailyrainin,SoftwareType,DateUTC
2013-07-11 00:00:00,73.8,71.7,29.87,WSW,249,0.0,3.0,93,0.00,,---,0.00,VWS V14.01,2013-07-11 04:00:00,
2013-07-11 00:01:00,73.8,71.7,29.87,WSW,249,0.0,0.0,93,0.00,,---,0.00,VWS V14.01,2013-07-11 04:01:00,
2013-07-11 00:06:00,73.8,71.7,29.87,WSW,249,2.0,2.0,93,0.00,,---,0.00,VWS V14.01,2013-07-11 04:06:00,
2013-07-11 00:11:00,73.7,71.6,29.87,WSW,249,0.0,2.0,93,0.00,,---,0.00,VWS V14.01,2013-07-11 04:11:00,
2013-07-11 00:16:00,73.7,71.9,29.87,WSW,249,0.0,2.0,94,0.00,,---,0.00,VWS V14.01,2013-07-11 04:16:00,
2013-07-11 00:21:00,73.7,71.9,29.87,WSW,249,0.0,2.0,94,0.00,,---,0.00,VWS V14.01,2013-07-11 04:21:00,
2013-07-11 00:26:00,73.6,71.8,29.87,WSW,249,0.0,2.0,94,0.00,,---,0.00,VWS V14.01,2013-07-11 04:26:00,
2013-07-11 00:30:00,73.6,71.8,29.87,WSW,249,0.0,2.0,94,0.00,,---,0.00,VWS V14.01,2013-07-11 04:30:00,
2013-07-11 00:31:00,73.6,71.8,29.87,WSW,249,0.0,0.0,94,0.00,,---,0.00,VWS V14.01,2013-07-11 04:31:00,
2013-07-11 00:36:00,73.6,71.8,29.87,WSW,249,0.0,2.0,94,0.00,,---,0.00,VWS V14.01,2013-07-11 04:36:00,
2013-07-11 00:41:00,73.6,71.8,29.86,WSW,249,0.0,2.0,94,0.00,,---,0.00,VWS V14.01,2013-07-11 04:41:00,
2013-07-11 00:46:00,73.6,71.8,29.87,WSW,249,0.0,2.0,94,0.00,,---,0.00,VWS V14.01,2013-07-11 04:46:00,
2013-07-11 00:51:00,73.6,71.8,29.88,WSW,250,0.0,2.0,94,0.00,,---,0.00,VWS V14.01,2013-07-11 04:51:00,
2013-07-11 00:56:00,73.6,71.8,29.88,WSW,249,0.0,2.0,94,0.00,,---,0.00,VWS V14.01,2013-07-11 04:56:00,
2013-07-11 01:00:00,73.7,71.9,29.88,WSW,249,0.0,2.0,94,0.00,,---,0.00,VWS V14.01,2013-07-11 05:00:00,
2013-07-11 01:01:00,73.7,71.9,29.88,WSW,249,0.0,0.0,94,0.00,,---,0.00,VWS V14.01,2013-07-11 05:01:00,
2013-07-11 01:06:00,73.8,72.0,29.88,WSW,249,0.0,2.0,94,0.00,,---,0.00,VWS V14.01,2013-07-11 05:06:00,
2013-07-11 01:11:00,73.7,71.9,29.88,WSW,249,0.0,2.0,94,0.00,,---,0.00,VWS V14.01,2013-07-11 05:11:00,
2013-07-11 01:16:00,73.7,71.9,29.88,WSW,249,1.0,2.0,94,0.00,,---,0.00,VWS V14.01,2013-07-11 05:16:00,
2013-07-11 01:21:00,73.7,71.9,29.87,WSW,250,0.0,2.0,94,0.00,,---,0.00,VWS V14.01,2013-07-11 05:21:00,
2013-07-11 01:26:00,73.7,71.9,29.87,WSW,248,0.0,3.0,94,0.00,,---,0.00,VWS V14.01,2013-07-11 05:26:00,
2013-07-11 01:30:00,73.7,71.9,29.87,WSW,257,0.0,3.0,94,0.00,,---,0.00,VWS V14.01,2013-07-11 05:30:00,
2013-07-11 01:31:00,73.7,71.9,29.87,WSW,257,1.0,1.0,94,0.00,,---,0.00,VWS V14.01,2013-07-11 05:31:00,
2013-07-11 01:36:00,73.7,71.9,29.87,WSW,258,1.0,2.0,94,0.00,,---,0.00,VWS V14.01,2013-07-11 05:36:00,
2013-07-11 01:41:00,73.7,71.6,29.87,West,269,1.0,2.0,93,0.00,,---,0.00,VWS V14.01,2013-07-11 05:41:00,
2013-07-11 01:46:00,73.7,71.6,29.87,West,264,0.0,2.0,93,0.00,,---,0.00,VWS V14.01,2013-07-11 05:46:00,
2013-07-11 01:51:00,73.7,71.6,29.86,West,264,0.0,3.0,93,0.00,,---,0.00,VWS V14.01,2013-07-11 05:51:00,
2013-07-11 01:56:00,73.7,71.6,29.86,West,264,0.0,3.0,93,0.00,,---,0.00,VWS V14.01,2013-07-11 05:56:00,
2013-07-11 02:00:00,73.7,71.6,29.86,WNW,284,1.0,3.0,93,0.00,,---,0.00,VWS V14.01,2013-07-11 06:00:00,
2013-07-11 02:01:00,73.7,71.6,29.86,WSW,250,1.0,2.0,93,0.00,,---,0.00,VWS V14.01,2013-07-11 06:01:00,
2013-07-11 02:06:00,73.8,71.7,29.85,WSW,257,0.0,2.0,93,0.00,,---,0.00,VWS V14.01,2013-07-11 06:06:00,
2013-07-11 02:11:00,73.8,71.7,29.85,West,264,0.0,2.0,93,0.00,,---,0.00,VWS V14.01,2013-07-11 06:11:00,
2013-07-11 02:16:00,73.9,71.8,29.85,West,264,0.0,2.0,93,0.00,,---,0.00,VWS V14.01,2013-07-11 06:16:00,
2013-07-11 02:21:00,73.9,71.8,29.85,North,7,0.0,2.0,93,0.00,,---,0.00,VWS V14.01,2013-07-11 06:21:00,
2013-07-11 02:26:00,74.0,71.8,29.85,SW,232,2.0,3.0,93,0.00,,---,0.00,VWS V14.01,2013-07-11 06:26:00,
2013-07-11 02:30:00,74.1,71.6,29.85,WSW,258,2.0,4.0,92,0.00,,---,0.00,VWS V14.01,2013-07-11 06:30:00,
2013-07-11 02:31:00,74.1,71.6,29.84,WSW,258,1.0,2.0,92,0.00,,---,0.00,VWS V14.01,2013-07-11 06:31:00,
2013-07-11 02:36:00,74.1,71.6,29.84,WSW,256,0.0,2.0,92,0.00,,---,0.00,VWS V14.01,2013-07-11 06:36:00,
2013-07-11 02:41:00,74.1,71.6,29.84,WSW,255,0.0,2.0,92,0.00,,---,0.00,VWS V14.01,2013-07-11 06:41:00,
2013-07-11 02:46:00,74.0,71.8,29.84,West,279,2.0,2.0,93,0.00,,---,0.00,VWS V14.01,2013-07-11 06:46:00,
2013-07-11 02:51:00,74.0,71.8,29.83,West,279,0.0,2.0,93,0.00,,---,0.00,VWS V14.01,2013-07-11 06:51:00,
2013-07-11 02:56:00,74.1,71.9,29.83,West,266,0.0,3.0,93,0.00,,---,0.00,VWS V14.01,2013-07-11 06:56:00,
2013-07-11 03:00:00,74.1,71.9,29.83,West,266,0.0,3.0,93,0.00,,---,0.00,VWS V14.01,2013-07-11 07:00:00,
2013-07-11 03:01:00,74.1,71.9,29.83,West,266,0.0,0.0,93,0.00,,---,0.00,VWS V14.01,2013-07-11 07:01:00,
2013-07-11 03:06:00,74.1,71.9,29.83,West,266,1.0,2.0,93,0.00,,---,0.00,VWS V14.01,2013-07-11 07:06:00,
2013-07-11 03:11:00,74.1,71.9,29.83,West,266,0.0,2.0,93,0.00,,---,0.00,VWS V14.01,2013-07-11 07:11:00,
2013-07-11 03:16:00,74.0,71.8,29.83,West,266,0.0,2.0,93,0.00,,---,0.00,VWS V14.01,2013-07-11 07:16:00,
2013-07-11 03:21:00,74.0,71.8,29.83,West,266,0.0,2.0,93,0.00,,---,0.00,VWS V14.01,2013-07-11 07:21:00,
2013-07-11 03:30:00,74.1,71.9,29.83,West,270,0.0,2.0,93,0.00,,---,0.00,VWS V14.01,2013-07-11 07:30:00,
2013-07-11 04:00:00,74.2,72.4,29.83,West,270,0.0,1.0,94,0.00,,---,0.00,VWS V14.01,2013-07-11 08:00:00,
2013-07-11 04:30:00,74.2,72.4,29.84,West,270,0.0,1.0,94,0.00,,---,0.00,VWS V14.01,2013-07-11 08:30:00,
2013-07-11 05:00:00,74.1,72.6,29.85,West,270,0.0,1.0,95,0.00,,---,0.00,VWS V14.01,2013-07-11 09:00:00,
2013-07-11 05:30:00,74.0,72.5,29.86,West,270,0.0,1.0,95,0.01,,---,0.01,VWS V14.01,2013-07-11 09:30:00,
2013-07-11 06:00:00,73.8,72.6,29.87,West,270,0.0,1.0,96,0.01,,---,0.01,VWS V14.01,2013-07-11 10:00:00,
2013-07-11 06:30:00,73.9,72.7,29.89,West,270,0.0,0.0,96,0.01,,---,0.01,VWS V14.01,2013-07-11 10:30:00,
2013-07-11 07:00:00,74.3,73.4,29.89,West,270,0.0,0.0,97,0.00,,---,0.01,VWS V14.01,2013-07-11 11:00:00,
2013-07-11 07:30:00,74.3,73.4,29.89,West,270,0.0,1.0,97,0.00,,---,0.01,VWS V14.01,2013-07-11 11:30:00,
2013-07-11 08:00:00,74.8,73.3,29.89,West,270,0.0,2.0,95,0.00,,---,0.01,VWS V14.01,2013-07-11 12:00:00,
2013-07-11 08:30:00,75.3,73.8,29.90,West,270,0.0,2.0,95,0.00,,---,0.01,VWS V14.01,2013-07-11 12:30:00,
2013-07-11 09:00:00,76.1,74.6,29.90,West,270,0.0,1.0,95,0.00,,---,0.01,VWS V14.01,2013-07-11 13:00:00,
2013-07-11 09:30:00,76.2,74.3,29.90,West,270,0.0,1.0,94,0.00,,---,0.01,VWS V14.01,2013-07-11 13:30:00,
2013-07-11 10:00:00,76.0,73.5,29.90,West,270,0.0,2.0,92,0.00,,---,0.01,VWS V14.01,2013-07-11 14:00:00,
2013-07-11 10:30:00,76.0,73.8,29.90,West,270,0.0,2.0,93,0.00,,---,0.01,VWS V14.01,2013-07-11 14:30:00,
2013-07-11 11:00:00,76.6,73.8,29.90,WSW,248,0.0,1.0,91,0.00,,---,0.01,VWS V14.01,2013-07-11 15:00:00,
2013-07-11 11:30:00,76.4,72.6,29.91,WSW,248,0.0,3.0,88,0.00,,---,0.01,VWS V14.01,2013-07-11 15:30:00,
2013-07-11 12:00:00,78.9,72.9,29.91,SW,225,0.0,6.0,82,0.00,,---,0.01,VWS V14.01,2013-07-11 16:00:00,
2013-07-11 12:30:00,81.1,72.0,29.90,SSW,202,1.0,5.0,74,0.00,,---,0.01,VWS V14.01,2013-07-11 16:30:00,
2013-07-11 13:00:00,81.1,72.4,29.90,WNW,292,0.0,4.0,75,0.00,,---,0.01,VWS V14.01,2013-07-11 17:00:00,
2013-07-11 13:30:00,80.9,71.8,29.90,SE,135,0.0,3.0,74,0.00,,---,0.01,VWS V14.01,2013-07-11 17:30:00,
2013-07-11 14:00:00,83.0,73.5,29.89,WNW,292,1.0,3.0,73,0.00,,---,0.01,VWS V14.01,2013-07-11 18:00:00,
2013-07-11 14:30:00,82.7,73.2,29.88,East,90,0.0,4.0,73,0.00,,---,0.01,VWS V14.01,2013-07-11 18:30:00,
2013-07-11 15:00:00,83.3,73.8,29.88,WSW,248,1.0,4.0,73,0.00,,---,0.01,VWS V14.01,2013-07-11 19:00:00,
2013-07-11 15:30:00,83.2,73.2,29.87,North,0,0.0,3.0,72,0.00,,---,0.01,VWS V14.01,2013-07-11 19:30:00,
2013-07-11 16:00:00,84.0,74.0,29.86,ESE,112,0.0,4.0,72,0.00,,---,0.01,VWS V14.01,2013-07-11 20:00:00,
2013-07-11 16:30:00,83.3,71.6,29.86,NE,45,0.0,3.0,68,0.00,,---,0.01,VWS V14.01,2013-07-11 20:30:00,
2013-07-11 17:00:00,83.1,73.6,29.86,ESE,112,0.0,2.0,73,0.00,,---,0.01,VWS V14.01,2013-07-11 21:00:00,
2013-07-11 17:30:00,83.3,71.6,29.86,NE,45,0.0,3.0,68,0.00,,---,0.01,VWS V14.01,2013-07-11 21:30:00,
2013-07-11 18:00:00,81.4,73.9,29.86,South,180,0.0,1.0,78,0.00,,---,0.01,VWS V14.01,2013-07-11 22:00:00,
2013-07-11 18:30:00,80.4,74.0,29.87,ESE,112,0.0,4.0,81,0.00,,---,0.01,VWS V14.01,2013-07-11 22:30:00,
2013-07-11 19:00:00,79.4,74.2,29.88,ESE,112,0.0,1.0,84,0.00,,---,0.01,VWS V14.01,2013-07-11 23:00:00,
2013-07-11 19:30:00,78.5,74.0,29.89,ESE,112,0.0,1.0,86,0.00,,---,0.01,VWS V14.01,2013-07-11 23:30:00,
2013-07-11 20:00:00,78.4,72.8,29.89,ESE,112,0.0,1.0,83,0.00,,---,0.01,VWS V14.01,2013-07-12 00:00:00,
2013-07-11 20:30:00,78.5,74.0,29.89,ESE,112,0.0,1.0,86,0.00,,---,0.01,VWS V14.01,2013-07-12 00:30:00,
2013-07-11 20:45:00,77.0,73.2,29.89,SSW,197,0.0,0.0,88,0.00,,---,0.01,VWS V14.01,2013-07-12 00:45:00,
2013-07-11 20:50:00,76.6,73.4,29.89,SSW,197,0.0,0.0,90,0.00,,---,0.01,VWS V14.01,2013-07-12 00:50:00,
2013-07-11 20:55:00,76.2,73.4,29.89,SSW,197,0.0,0.0,91,0.00,,---,0.01,VWS V14.01,2013-07-12 00:55:00,
2013-07-11 21:00:00,75.9,73.1,29.88,SSW,197,0.0,0.0,91,0.00,,---,0.01,VWS V14.01,2013-07-12 01:00:00,
2013-07-11 21:06:00,75.7,72.9,29.89,SSW,197,0.0,0.0,91,0.00,,---,0.01,VWS V14.01,2013-07-12 01:06:00,
2013-07-11 21:11:00,75.5,72.7,29.89,SSW,197,0.0,0.0,91,0.00,,---,0.01,VWS V14.01,2013-07-12 01:11:00,
2013-07-11 21:16:00,75.4,72.6,29.89,SSW,197,0.0,0.0,91,0.00,,---,0.01,VWS V14.01,2013-07-12 01:16:00,
2013-07-11 21:21:00,75.3,72.5,29.89,SSW,197,0.0,0.0,91,0.00,,---,0.01,VWS V14.01,2013-07-12 01:21:00,
2013-07-11 21:26:00,75.3,72.8,29.89,SSW,197,0.0,0.0,92,0.00,,---,0.01,VWS V14.01,2013-07-12 01:26:00,
2013-07-11 21:30:00,75.2,72.4,29.90,SSW,197,0.0,0.0,91,0.00,,---,0.01,VWS V14.01,2013-07-12 01:30:00,
2013-07-11 21:31:00,75.2,72.4,29.90,SSW,197,0.0,0.0,91,0.00,,---,0.01,VWS V14.01,2013-07-12 01:31:00,
2013-07-11 21:36:00,75.0,72.5,29.89,SSW,197,0.0,0.0,92,0.00,,---,0.01,VWS V14.01,2013-07-12 01:36:00,
2013-07-11 21:41:00,74.9,72.4,29.90,SSW,197,0.0,0.0,92,0.00,,---,0.01,VWS V14.01,2013-07-12 01:41:00,
2013-07-11 21:46:00,74.8,72.6,29.90,SSW,197,0.0,0.0,93,0.00,,---,0.01,VWS V14.01,2013-07-12 01:46:00,
2013-07-11 21:51:00,74.8,72.6,29.90,SSW,197,0.0,0.0,93,0.00,,---,0.01,VWS V14.01,2013-07-12 01:51:00,
2013-07-11 21:56:00,74.8,72.6,29.90,SSW,197,0.0,0.0,93,0.00,,---,0.01,VWS V14.01,2013-07-12 01:56:00,
2013-07-11 22:00:00,74.8,72.6,29.89,SSW,197,0.0,0.0,93,0.00,,---,0.01,VWS V14.01,2013-07-12 02:00:00,
2013-07-11 22:01:00,74.8,72.6,29.90,SSW,197,0.0,0.0,93,0.00,,---,0.01,VWS V14.01,2013-07-12 02:01:00,
2013-07-11 22:06:00,74.7,72.6,29.90,SSW,197,0.0,0.0,93,0.00,,---,0.01,VWS V14.01,2013-07-12 02:06:00,
2013-07-11 22:11:00,74.7,72.6,29.90,SSW,197,0.0,0.0,93,0.00,,---,0.01,VWS V14.01,2013-07-12 02:11:00,
2013-07-11 22:16:00,74.5,72.7,29.89,SSW,197,0.0,0.0,94,0.00,,---,0.01,VWS V14.01,2013-07-12 02:16:00,
2013-07-11 22:22:00,74.4,72.6,29.89,SSW,197,0.0,0.0,94,0.00,,---,0.01,VWS V14.01,2013-07-12 02:22:00,
2013-07-11 22:27:00,74.3,72.5,29.89,SSW,197,0.0,0.0,94,0.00,,---,0.01,VWS V14.01,2013-07-12 02:27:00,
2013-07-11 22:30:00,74.1,72.3,29.89,SSW,197,0.0,0.0,94,0.00,,---,0.01,VWS V14.01,2013-07-12 02:30:00,
2013-07-11 22:32:00,74.1,72.3,29.89,SSW,197,0.0,0.0,94,0.00,,---,0.01,VWS V14.01,2013-07-12 02:32:00,
2013-07-11 22:37:00,74.1,72.3,29.89,SSW,197,0.0,0.0,94,0.00,,---,0.01,VWS V14.01,2013-07-12 02:37:00,
2013-07-11 22:42:00,74.0,72.2,29.89,SSW,197,0.0,0.0,94,0.00,,---,0.01,VWS V14.01,2013-07-12 02:42:00,
2013-07-11 22:47:00,74.0,72.2,29.89,SSW,197,0.0,0.0,94,0.00,,---,0.01,VWS V14.01,2013-07-12 02:47:00,
2013-07-11 22:52:00,73.8,72.3,29.89,SSW,197,0.0,0.0,95,0.00,,---,0.01,VWS V14.01,2013-07-12 02:52:00,
2013-07-11 22:57:00,73.8,72.3,29.89,SSW,197,0.0,0.0,95,0.00,,---,0.01,VWS V14.01,2013-07-12 02:57:00,
2013-07-11 23:00:00,73.8,72.3,29.89,SSW,197,0.0,0.0,95,0.00,,---,0.01,VWS V14.01,2013-07-12 03:00:00,
2013-07-11 23:02:00,73.8,72.3,29.89,SSW,197,0.0,0.0,95,0.00,,---,0.01,VWS V14.01,2013-07-12 03:02:00,
2013-07-11 23:07:00,73.7,72.2,29.90,SSW,197,0.0,0.0,95,0.00,,---,0.01,VWS V14.01,2013-07-12 03:07:00,
2013-07-11 23:12:00,73.7,72.2,29.90,SSW,197,0.0,1.0,95,0.00,,---,0.01,VWS V14.01,2013-07-12 03:12:00,
2013-07-11 23:18:00,73.7,72.2,29.90,SSW,197,0.0,1.0,95,0.00,,---,0.01,VWS V14.01,2013-07-12 03:18:00,
2013-07-11 23:23:00,73.7,72.2,29.90,SSW,197,0.0,1.0,95,0.00,,---,0.01,VWS V14.01,2013-07-12 03:23:00,
2013-07-11 23:28:00,73.6,72.1,29.89,SSW,197,0.0,1.0,95,0.00,,---,0.01,VWS V14.01,2013-07-12 03:28:00,
2013-07-11 23:30:00,73.7,72.2,29.90,SSW,197,0.0,1.0,95,0.00,,---,0.01,VWS V14.01,2013-07-12 03:30:00,
2013-07-11 23:33:00,73.7,72.2,29.90,SSW,197,0.0,0.0,95,0.00,,---,0.01,VWS V14.01,2013-07-12 03:33:00,
2013-07-11 23:38:00,73.7,72.2,29.90,SSW,197,0.0,0.0,95,0.00,,---,0.01,VWS V14.01,2013-07-12 03:38:00,
2013-07-11 23:43:00,73.7,72.2,29.90,SSW,197,0.0,0.0,95,0.00,,---,0.01,VWS V14.01,2013-07-12 03:43:00,
2013-07-11 23:48:00,73.8,72.3,29.90,SSW,197,0.0,0.0,95,0.00,,---,0.01,VWS V14.01,2013-07-12 03:48:00,
2013-07-11 23:53:00,73.8,72.3,29.90,SSW,197,0.0,0.0,95,0.00,,---,0.01,VWS V14.01,2013-07-12 03:53:00,
2013-07-11 23:58:00,73.8,72.3,29.90,SSW,197,0.0,0.0,95,0.00,,---,0.01,VWS V14.01,2013-07-12 03:58:00,